Regional Weather Roundup
Issued by NWS Jackson, KY

Home | Current Version | Previous Version | Graphics & Text | Print | Product List | Glossary On
Versions: 1 2 3 4 5 6 7 8 9 10 11 12 13 14 15 16 17 18 19 20 21 22 23 24 25 26 27 28 29 30 31 32 33 34 35 36 37 38 39 40 41 42 43 44 45 46 47 48 49 50
000
ASUS43 KJKL 070510
RWRJKL

EAST KENTUCKY HOURLY WEATHER ROUNDUP
NATIONAL WEATHER SERVICE JACKSON KY
1200 AM EST SUN FEB 07 2016

NOTE: "FAIR" INDICATES FEW OR NO CLOUDS BELOW 12,000 FEET WITH
NO SIGNIFICANT WEATHER AND/OR OBSTRUCTIONS TO VISIBILITY.

* THESE REPORTS ARE NOT UNDER NWS QUALITY CONTROL AND MAY NOT
  REPORT WEATHER SUCH AS PRECIPITATION AND FOG.

KYZ079-080-083-085-087-088-110-112-115-119-120-070600
...EASTERN KENTUCKY...

CITY           SKY/WX    TMP DP  RH WIND       PRES   REMARKS
JACKSON        CLEAR     37  20  50 SW3       30.23F
LONDON         CLEAR     29  22  75 CALM      30.25F
SOMERSET*      CLEAR     30  23  74 CALM      30.27F
MONTICELLO*    CLEAR     25  22  88 CALM      30.28F
WILLIAMSBURG*  CLEAR     32  25  74 CALM      30.26F
MIDDLESBORO*   PTCLDY    31  27  84 CALM      30.26F
HARLAN APT*      N/A     32  27  80 CALM      30.24F
HAZARD APT*    CLEAR    N/A N/A N/A CALM      30.24F
BLACK MTN*       N/A     28  19  69 N1          N/A
BIG SANDY*     CLEAR     38  22  52 CALM      30.23F
MOREHEAD APT*  CLEAR     36  23  60 CALM      30.26S
$$

KYZ035-036-041-042-044-050-067-078-099-070600
...CENTRAL KENTUCKY...

CITY           SKY/WX    TMP DP  RH WIND       PRES   REMARKS
MT STERLING*   CLEAR     28  27  93 SW5       30.25F WCI  23
DANVILLE*      CLEAR     32  23  69 CALM      30.26F
RICHMOND*      CLEAR     34  21  60 S5        30.25S WCI  30
LEXINGTON      CLEAR     29  23  78 S6        30.24S WCI  23
FRANKFORT      CLEAR     27  21  78 CALM      30.23F
$$

KYZ091>093-OHZ055-061-077-WVZ005-015-034-035-042-070600
...SOUTHERN OHIO/WEST VIRGINIA...

CITY           SKY/WX    TMP DP  RH WIND       PRES   REMARKS
COVINGTON      CLEAR     34  23  64 S7        30.21F WCI  28
COLUMBUS       CLEAR     29  19  66 CALM      30.21S
DAYTON         CLEAR     35  24  64 S8        30.19F WCI  29
WILMINGTON     CLEAR     31  23  72 S6        30.20F WCI  25
HUNTINGTON       N/A     35  23  61 CALM      30.23F
CHARLESTON       N/A     33  21  61 CALM      30.23S
PINEVILLE*       N/A     31  24  73 MISG      30.25F
BECKLEY        CLOUDY    34  16  47 CALM      30.18F
$$

VAZ002-007-008-TNZ017-027-036-066-071-070600
...SOUTHWEST VIRGINIA/EAST TENNESSEE...

CITY           SKY/WX    TMP DP  RH WIND       PRES   REMARKS
BRISTOL        PTCLDY    27  21  78 CALM      30.24F
KNOXVILLE      PTCLDY    35  22  58 CALM      30.25F
OAK RIDGE      PTCLDY    35  27  72 CALM      30.27F
CROSSVILLE     CLOUDY    32  18  56 CALM      30.24F
NASHVILLE      CLEAR     34  24  67 CALM      30.28F
$$

...KEY TO REMARKS...
VSB - VISIBILITY IN MILES
WCI - WIND CHILL INDEX
HX  - HEAT INDEX

$$



USA.gov is the U.S. government's official web portal to all federal, state and local government web resources and services.